{"data":{"norad_id":61930,"intl_designator":"2024-207U","name":"STARLINK-32567","alt_names":[],"object_type":"PAYLOAD","status":"ACTIVE","operator":null,"country":"US","launch_date":"2024-11-11","launch_site_code":"AFETR","launch_vehicle":null,"mission":null,"orbit_class":"UNKNOWN","rcs_meters":null,"size_class":null,"mass_kg":null,"dimensions":null,"purposes":["comms"],"wikipedia_slug":null,"has_3d_model":false,"image_url":null,"decayed_at":null,"tle_current":{"epoch":"2026-05-25T05:01:14.369376Z","epoch_age_seconds":60984,"freshness":"FRESH","line1":"1 61930U 24207U   26145.20919409  .00014817  00000+0  54665-3 0  9995","line2":"2 61930  42.9957 206.2197 0000570 296.2736  63.8057 15.27592575 87058","mean_motion":15.27592575,"eccentricity":5.7e-5,"inclination_deg":42.9957,"raan_deg":206.2197,"arg_perigee_deg":296.2736,"mean_anomaly_deg":63.8057,"bstar":0.00054665,"rev_number":8705,"period_min":94.265972718544,"perigee_km":482.62035676292,"apogee_km":483.40252768533,"semimajor_km":6861.1484422241,"source":"CELESTRAK","updated_at":"2026-05-25T13:38:19.484573Z"}}}